Overview Statistics Trail Chart Weather Telemetry Raw packets
 

This is the latest recevied weather packets stored in our database for station/object KN6CRX-10. If no packets are shown the sender has not sent any weather packets the latest 10 day(s).

<< 24 25 26 27 28 29 30 >>
Time Temp. Humidity Pressure Rain* Wind** Luminosity Snow
1788246554 15.56° C 80% 1019.9 hPa 0 mm - 0 W/m² -
1788246249 15° C 80% 1020 hPa 0 mm - 0 W/m² -
1788245948 15° C 80% 1019.9 hPa 0 mm - 0 W/m² -
1788245643 15.56° C 81% 1020.2 hPa 0 mm - 0 W/m² -
1788245339 15.56° C 80% 1020.1 hPa 0 mm - 0 W/m² -
1788245035 15.56° C 80% 1020.2 hPa 0 mm - 0 W/m² -
1788244732 15.56° C 78% 1020 hPa 0 mm - 0 W/m² -
1788244428 15.56° C 76% 1020.2 hPa 0 mm - 0 W/m² -
1788244124 15.56° C 76% 1020.6 hPa 0 mm - 0 W/m² -
1788243820 15.56° C 76% 1020.2 hPa 0 mm - 0 W/m² -
1788243516 16.11° C 76% 1020.1 hPa 0 mm - 0 W/m² -
1788243211 16.11° C 74% 1020.1 hPa 0 mm - 0 W/m² -
1788242906 16.11° C 74% 1020.2 hPa 0 mm - 0 W/m² -
1788242602 16.67° C 70% 1020.2 hPa 0 mm - 0 W/m² -
1788242301 16.67° C 70% 1019.9 hPa 0 mm - 0 W/m² -
1788241998 16.67° C 69% 1020.2 hPa 0 mm - 0 W/m² -
1788241694 16.67° C 72% 1020 hPa 0 mm - 0 W/m² -
1788241391 16.67° C 74% 1020 hPa 0 mm - 0 W/m² -
1788241087 16.67° C 73% 1020 hPa 0 mm - 0 W/m² -
1788240782 16.67° C 71% 1020.1 hPa 0 mm - 0 W/m² -
1788240485 16.11° C 71% 1020 hPa 0 mm - 0 W/m² -
1788240173 16.11° C 71% 1020.1 hPa 0 mm - 0 W/m² -
1788239871 16.11° C 71% 1020.2 hPa 0 mm - 0 W/m² -
1788239581 16.11° C 71% 1020.2 hPa 0 mm - 0 W/m² -
1788239262 16.11° C 72% 1020.3 hPa 0 mm - 0 W/m² -

* Rain latest hour (hover to see other rain measurements)
** Current wind speed in m/s (hover to see current wind gust speed)